User: anonymous   Login
Location: Monroe
(41.9160°N, 83.3980°W)
Time: 04:42:34
(UTC-05:00)
Language:

deb Explorer IX - Orbit

View from above orbital plane
View from above orbital plane
View from above satellite
View from above satellite

Ground track
Ground track

The orbit data is extracted from the following two-line orbital elements,

1    85U 61004C   18054.16778952 -.00001730 +00000-0 -36375-3 0  9997
2    85 038.7769 005.3230 0391363 277.1173 078.5236 14.18430971810942
Epoch (UTC): 23 February 2018 04:01:37
Eccentricity: 0.0391363
inclination: 38.7769°
perigee height: 548 km
apogee height: 1113 km
right ascension of ascending node: 5.3230°
argument of perigee: 277.1173°
revolutions per day: 14.18430971
mean anomaly at epoch: 78.5236°
orbit number at epoch: 81094

The dashed part of the orbit path shows where the satellite is in the earth's shadow,  

DLR